Location: New Mesquite
(33.1168°N, 96.4336°W)
Time: 14:09:17
(UTC+00:00)

Okean 1 - Visible Passes

Search period start: 03 July 2022 00:00
Search period end: 13 July 2022 00:00
Orbit: 534 x 551 km, 82.5° (Epoch: 02 July)

Date Brightness Start Highest point End Pass type
(mag) Time Alt. Az. Time Alt. Az. Time Alt. Az.
03 Jul 5.8 09:01:19 10° NNE 09:04:11 19° ENE 09:07:02 10° SE visible
03 Jul 4.7 10:37:21 10° NW 10:40:19 21° W 10:43:16 10° SW visible
04 Jul 5.7 08:54:39 10° NNE 08:57:34 20° ENE 09:00:29 10° SE visible
04 Jul 4.7 10:30:47 10° NW 10:33:42 20° W 10:36:13 12° SW visible
05 Jul 5.6 08:48:00 10° NNE 08:50:59 20° ENE 08:53:23 13° ESE visible
05 Jul 4.8 10:24:14 10° NW 10:27:04 19° W 10:28:54 14° WSW visible
06 Jul 5.5 08:41:20 10° NNE 08:44:22 21° ENE 08:46:06 16° ESE visible
06 Jul 4.8 10:17:40 10° NW 10:20:27 19° W 10:21:38 17° WSW visible
07 Jul 5.4 08:34:40 10° NNE 08:37:46 22° ENE 08:38:54 19° ESE visible
07 Jul 4.8 10:11:07 10° NW 10:13:49 18° W 10:14:26 17° W visible
08 Jul 5.3 08:28:00 10° NNE 08:31:09 23° ENE 08:31:46 22° E visible
08 Jul 4.9 10:04:33 10° NW 10:07:12 17° W 10:07:17 17° W visible
09 Jul 5.3 08:21:21 10° NNE 08:24:32 23° ENE 08:24:39 23° E visible
09 Jul 5.0 09:58:00 10° NW 10:00:11 17° W 10:00:11 17° W visible
10 Jul 5.3 08:14:40 10° NNE 08:17:35 24° ENE 08:17:35 24° ENE visible
10 Jul 5.2 09:51:27 10° NW 09:53:07 15° WNW 09:53:07 15° WNW visible
11 Jul 5.4 08:08:01 10° NNE 08:10:34 23° ENE 08:10:34 23° ENE visible
11 Jul 5.4 09:44:53 10° NW 09:46:06 14° WNW 09:46:06 14° WNW visible
12 Jul 5.5 08:01:21 10° NNE 08:03:35 23° NE 08:03:35 23° NE visible
12 Jul 5.5 09:38:20 10° NW 09:39:07 13° WNW 09:39:07 13° WNW visible
